[[{"header":{"parameterUnit":"m.s-1","parameterCategory":1,"la1":30.2991,"la2":30.254,"lo1":-89.0895,"lo2":-89.0444,"dy":0.0017,"dx":0.0017,"nx":28,"ny":28,"refTime":"2023-08-14T21:00:00:Z","depth":0,"parameterNumber":2,"parameterNumberName":"U-component_of_WINDS"},"data":[0,0,0,0,0,0,0,0,0,0,0,0,0,0,0,0,0,0,0,0,0,0,0,0,0,0,0,0,0,0,0,0,0,0,0,0,0,0,0,0,0,0,0,0,0,0,0,0,0,0,0,0,0,0,0,0,0,0,5.6076,5.6078,0,5.6225,5.6226,5.6228,5.6158,5.6154,5.615,5.6147,5.63,5.6307,5.6314,0,0,0,0,0,0,0,0,0,0,0,0,0,5.5731,5.5738,5.6076,5.6078,5.608,5.6224,5.6226,5.6228,5.6159,5.6154,5.6149,5.6145,5.6297,5.6306,5.6315,0,0,0,0,0,0,0,0,0,0,0,0,0,5.588,5.574,5.6076,5.6062,5.6063,5.6224,5.6226,5.6229,5.616,5.6154,5.6148,5.6143,5.6294,5.6305,5.6316,5.65,0,0,5.6351,5.6356,0,0,0,0,0,0,0,0,5.5872,5.5893,5.6063,5.6064,5.6064,5.6167,5.6161,5.632,5.6161,5.6123,5.6147,5.614,5.626,5.6274,5.6314,5.6507,5.6514,5.6352,5.6359,5.6364,5.6367,0,0,0,0,0,0,0,5.5862,5.5886,5.6135,5.6065,5.6066,5.6049,5.6064,5.6191,5.6221,5.6126,5.6121,5.6139,5.6259,5.6303,5.6317,5.6516,5.6352,5.6362,5.6369,5.6373,5.6863,5.6868,0,0,0,0,0,0,5.5852,5.5878,5.613,5.6139,5.5952,5.6059,5.6076,5.614,5.622,5.6227,5.6144,5.6136,5.6287,5.6304,5.6322,5.6539,5.6364,5.6375,5.6381,5.6857,5.6864,5.6871,0,0,0,0,0,0,5.5845,5.5875,5.6124,5.6008,5.6038,5.6071,5.6143,5.6146,5.6189,5.6234,5.6239,5.6183,5.6283,5.6306,5.6455,5.6544,5.638,5.639,5.6849,5.6859,5.6867,5.6977,0,0,0,0,0,0,5.5835,5.5873,5.5943,5.601,5.6044,5.6255,5.6149,5.6153,5.6209,5.6199,5.6272,5.6278,5.628,5.6439,5.6467,5.6556,5.6399,5.6841,5.6853,5.6864,5.6965,5.6989,5.7008,0,0,0,0,0,5.5823,5.5969,5.5947,5.5978,5.6133,5.6261,5.628,5.6279,5.6217,5.6287,5.6315,5.6276,5.653,5.6455,5.6485,5.658,5.6836,5.685,5.6864,5.6956,5.6984,5.7008,0,0,0,0,0,0,5.5913,5.5978,5.5954,5.6126,5.6188,5.6249,5.6337,5.631,5.6392,5.6379,5.6375,5.6392,5.6545,5.6578,5.6493,5.676,5.6673,5.6694,5.6733,5.676,5.6781,5.6769,5.6408,0,0,0,0,0,5.5953,5.6052,5.6102,5.6249,5.6282,5.6305,5.636,5.6354,5.6418,5.6444,5.6483,5.6547,5.664,5.6702,5.6791,5.697,5.6983,5.705,5.7072,5.7089,5.7107,5.72,5.723,5.6916,5.6916,5.6916,0,0,5.6037,5.6084,5.6147,5.6269,5.6316,5.6417,5.6327,5.6438,5.6513,5.6461,5.6603,5.6634,5.6705,5.6868,5.6943,5.69,5.7196,5.7107,5.7121,5.7129,5.7218,5.7247,5.7274,5.6926,5.6924,5.6922,0,0,5.624,5.6287,5.6412,5.6461,5.6533,5.6547,5.6578,5.6642,5.666,5.6802,5.6764,5.6853,5.7016,5.7066,5.7114,5.7334,5.73,5.7363,5.7475,5.7566,5.7591,5.7613,5.7688,5.7716,5.738,5.7381,5.7381,0,5.6334,5.6485,5.6481,5.6594,5.6648,5.6605,5.6731,5.6779,5.6877,5.6914,5.6866,5.7067,5.7112,5.7285,5.7338,5.7379,5.7412,5.7354,5.7588,5.761,5.763,5.7702,5.773,5.7388,5.7387,5.7386,5.7386,0,5.6596,5.6701,5.6794,5.6887,5.6952,5.7072,5.7085,5.715,5.7138,5.7157,5.7301,5.7353,5.745,5.7491,5.7482,5.7663,5.7634,5.7587,5.7499,5.7667,5.7734,5.7762,5.7398,5.7395,5.7393,5.7391,0,0,5.686,5.6949,5.6983,5.7023,5.7099,5.718,5.7297,5.7391,5.7446,5.7515,5.7611,5.7748,5.7704,5.7758,5.7753,5.7834,5.8001,5.7776,5.7778,5.7814,5.82,5.8233,5.8265,5.7979,5.7985,5.7989,5.8193,0,5.7066,5.7269,5.7268,5.7456,5.7551,5.7511,5.7612,5.7669,5.7689,5.7772,5.7795,5.7891,5.7828,5.7859,5.7937,5.7964,5.8078,5.7949,5.8067,5.8071,5.8048,5.8301,5.8337,5.8527,5.822,5.8224,5.8228,0,5.7333,5.7409,5.7606,5.7665,5.7705,5.7796,5.788,5.7961,5.8024,5.8033,5.8092,5.8074,5.8191,5.8102,5.8262,5.8174,5.8223,5.8243,5.825,5.8259,5.8158,5.8314,5.8588,5.8615,5.827,5.8266,5.8263,0,5.7502,5.7654,5.779,5.7827,5.79,5.7964,5.7998,5.8055,5.8111,5.8185,5.8221,5.8309,5.8356,5.8424,5.8429,5.8364,5.859,5.8501,5.8599,5.8598,5.8646,5.8643,5.8929,5.8682,5.8682,5.8681,5.8681,0,5.7731,5.7852,5.7866,5.795,5.8084,5.8081,5.8214,5.8242,5.8293,5.838,5.8352,5.8435,5.8438,5.8523,5.8528,5.8658,5.8681,5.869,5.8689,5.8691,5.8689,5.8721,5.8707,5.8689,5.8687,5.8686,5.8684,0,5.7942,5.7957,5.8102,5.8158,5.8175,5.8271,5.8319,5.8398,5.8415,5.8526,5.8552,5.8579,5.8677,5.8689,5.8804,5.8808,5.8963,5.895,5.8941,5.8938,5.9034,5.9024,5.9348,5.9389,5.9118,5.9121,5.9123,0,5.8085,5.8177,5.8243,5.8299,5.8335,5.8427,5.8483,5.8483,5.8543,5.862,5.8689,5.8784,5.8859,5.9017,5.9046,5.9133,5.912,5.9228,5.9133,5.9131,5.9118,5.9112,5.9119,5.9246,5.9249,5.9251,5.9253,0,5.8338,5.834,5.8421,5.8506,5.8573,5.8639,5.8702,5.8749,5.8757,5.8825,5.8924,5.8983,5.9098,5.9192,5.9277,5.9311,5.9283,5.9283,5.9309,5.9311,5.9301,5.9304,5.8988,5.9275,5.9273,5.9271,5.927,5.9269,5.8517,5.8596,5.8653,5.8745,5.8791,5.8849,5.8925,5.8951,5.9033,5.9127,5.9122,5.923,5.9289,5.94,5.944,5.9524,5.9488,5.9528,5.9537,5.9546,5.9554,5.9289,5.954,5.9539,5.9539,5.9538,5.9538,0,5.8765,5.88,5.8884,5.8971,5.9042,5.901,5.9076,5.9138,5.9233,5.929,5.9364,5.9476,5.9566,5.9602,5.9689,5.9749,5.9738,5.9772,5.9766,5.9774,5.9582,5.9549,5.9779,5.9779,5.9779,5.9779,5.9779,5.9779,5.8903,5.9033,5.9041,5.9193,5.9227,5.9332,5.9372,5.9425,5.947,5.9596,5.967,5.9692,5.974,5.983,5.9911,5.9919,5.9951,5.999,5.9992,5.9812,5.9788,5.9764,5.9733,5.9998,5.9998,6.0176,6.0178,6.0179]},{"header":{"parameterUnit":"m.s-1","parameterCategory":1,"la1":30.2991,"la2":30.254,"lo1":-89.0895,"lo2":-89.0444,"dy":0.0017,"dx":0.0017,"nx":28,"ny":28,"refTime":"2023-08-14T21:00:00:Z","depth":0,"parameterNumber":3,"parameterNumberName":"V-component_of_WINDS"},"data":[0,0,0,0,0,0,0,0,0,0,0,0,0,0,0,0,0,0,0,0,0,0,0,0,0,0,0,0,0,0,0,0,0,0,0,0,0,0,0,0,0,0,0,0,0,0,0,0,0,0,0,0,0,0,0,0,0,0,2.6143,2.6145,0,2.6269,2.6271,2.6272,2.6274,2.6272,2.6271,2.6269,2.6394,2.6399,2.6404,0,0,0,0,0,0,0,0,0,0,0,0,0,2.59,2.5904,2.6143,2.6145,2.6146,2.6269,2.6271,2.6272,2.6274,2.6272,2.627,2.6268,2.6393,2.6398,2.6404,0,0,0,0,0,0,0,0,0,0,0,0,0,2.6013,2.5906,2.6143,2.6162,2.6165,2.6269,2.6271,2.6273,2.6275,2.6272,2.627,2.6268,2.6391,2.6398,2.6405,2.6496,0,0,2.6427,2.643,0,0,0,0,0,0,0,0,2.6007,2.6022,2.6158,2.6161,2.6164,2.6253,2.6231,2.6348,2.6275,2.6233,2.6269,2.6266,2.6349,2.6359,2.6388,2.6502,2.6508,2.6427,2.6432,2.6435,2.6437,0,0,0,0,0,0,0,2.5999,2.6017,2.6193,2.616,2.6164,2.6163,2.6176,2.6253,2.6302,2.6236,2.6237,2.6252,2.635,2.6381,2.6391,2.6509,2.6427,2.6434,2.6438,2.6441,2.6704,2.6706,0,0,0,0,0,0,2.5988,2.601,2.6189,2.6197,2.6078,2.6169,2.6184,2.6227,2.6302,2.6311,2.6254,2.6251,2.637,2.6383,2.6395,2.6507,2.6435,2.6442,2.6446,2.6701,2.6704,2.6707,0,0,0,0,0,0,2.5983,2.6004,2.6184,2.6104,2.6127,2.6176,2.6224,2.6231,2.6262,2.6315,2.6323,2.6276,2.6369,2.6385,2.6471,2.6511,2.6445,2.6451,2.6698,2.6702,2.6706,2.6731,0,0,0,0,0,0,2.5976,2.6002,2.6038,2.6105,2.6131,2.6259,2.6226,2.6235,2.6275,2.6273,2.6338,2.6347,2.6368,2.6461,2.6478,2.652,2.6457,2.6694,2.67,2.6704,2.6727,2.6736,2.6743,0,0,0,0,0,2.5967,2.604,2.604,2.6062,2.6178,2.6261,2.6276,2.63,2.6278,2.6314,2.6348,2.6345,2.6504,2.6469,2.649,2.6534,2.6692,2.6698,2.6704,2.6723,2.6734,2.6743,0,0,0,0,0,0,2.5976,2.6049,2.605,2.6147,2.6198,2.6261,2.6308,2.6311,2.6368,2.6364,2.639,2.6405,2.649,2.6521,2.6481,2.6626,2.6595,2.6605,2.6603,2.6613,2.6621,2.6612,2.6463,0,0,0,0,0,2.599,2.6053,2.6112,2.6192,2.6218,2.6258,2.6296,2.631,2.6363,2.6385,2.6425,2.6476,2.6537,2.6577,2.6636,2.6731,2.6745,2.6772,2.6779,2.6786,2.6794,2.6846,2.6858,2.6727,2.6727,2.6727,0,0,2.6018,2.6065,2.6103,2.6195,2.6236,2.63,2.6277,2.6345,2.6392,2.6394,2.6479,2.651,2.6568,2.6659,2.67,2.6686,2.6834,2.6793,2.6798,2.6803,2.6853,2.6866,2.6877,2.6731,2.673,2.6729,0,0,2.6101,2.6144,2.6215,2.6257,2.632,2.6347,2.6363,2.6427,2.6448,2.6533,2.6536,2.6591,2.6696,2.6738,2.6772,2.6871,2.6869,2.6889,2.6931,2.6981,2.6991,2.7,2.7035,2.7047,2.6897,2.6897,2.6898,0,2.6128,2.6225,2.625,2.6319,2.6359,2.6365,2.6436,2.6475,2.6554,2.658,2.6564,2.6696,2.6736,2.6836,2.686,2.6888,2.6907,2.6882,2.6988,2.6997,2.7006,2.7039,2.7052,2.6899,2.6899,2.6899,2.6899,0,2.6254,2.6322,2.6371,2.6448,2.6493,2.6562,2.6597,2.6639,2.6649,2.6677,2.6762,2.681,2.6879,2.6904,2.6913,2.7005,2.6994,2.6982,2.6952,2.702,2.7052,2.7065,2.6902,2.6902,2.6901,2.69,0,0,2.6348,2.6438,2.6456,2.649,2.656,2.6612,2.6681,2.6749,2.6785,2.6838,2.6896,2.6985,2.6974,2.7013,2.7028,2.7072,2.7146,2.7054,2.7056,2.7069,2.7248,2.7256,2.7271,2.7145,2.7148,2.715,2.7243,0,2.6438,2.6563,2.6587,2.6695,2.6756,2.6763,2.6823,2.6871,2.6898,2.6954,2.6983,2.7046,2.7027,2.7051,2.7095,2.7127,2.7182,2.7121,2.7198,2.72,2.7183,2.7287,2.7297,2.7382,2.7255,2.7258,2.7259,0,2.6561,2.6619,2.6733,2.6794,2.6821,2.6875,2.6939,2.6992,2.7046,2.7063,2.7107,2.7116,2.7186,2.7153,2.7249,2.7207,2.724,2.726,2.7264,2.7272,2.7234,2.7298,2.741,2.7423,2.7279,2.7277,2.7276,0,2.6617,2.6724,2.6805,2.6835,2.6908,2.6946,2.6978,2.703,2.7069,2.7125,2.715,2.7213,2.7247,2.7295,2.732,2.7293,2.7414,2.7383,2.7429,2.7428,2.7454,2.7452,2.7573,2.7475,2.7475,2.7475,2.7474,0,2.6716,2.6785,2.6832,2.6882,2.6959,2.6986,2.7061,2.7092,2.7138,2.7193,2.7202,2.7253,2.7284,2.7339,2.7359,2.7435,2.7451,2.7465,2.7469,2.7464,2.7462,2.7486,2.748,2.7478,2.7477,2.7477,2.7476,0,2.6792,2.6826,2.6915,2.6977,2.6995,2.7049,2.7101,2.7149,2.7176,2.7246,2.7264,2.7306,2.7372,2.7402,2.7482,2.7496,2.7582,2.7582,2.7564,2.7566,2.761,2.7605,2.775,2.777,2.766,2.7661,2.7661,0,2.6852,2.6906,2.6974,2.7013,2.7046,2.7107,2.7148,2.7175,2.7217,2.7283,2.7322,2.7388,2.7443,2.7547,2.7584,2.7645,2.7646,2.7693,2.7656,2.7648,2.7647,2.7643,2.7648,2.77,2.7701,2.7702,2.7702,0,2.6956,2.697,2.7029,2.7094,2.7143,2.7194,2.7245,2.7276,2.7311,2.7357,2.7425,2.7467,2.7549,2.7614,2.7678,2.7709,2.7711,2.7714,2.7728,2.7723,2.771,2.7717,2.7582,2.771,2.771,2.7709,2.7709,2.7708,2.7026,2.7074,2.7129,2.7194,2.7236,2.7283,2.7331,2.7365,2.7422,2.7493,2.7505,2.7577,2.7628,2.7714,2.7748,2.7803,2.7792,2.7812,2.7817,2.7821,2.7824,2.7701,2.7815,2.7814,2.7814,2.7814,2.7814,0,2.713,2.7166,2.7226,2.7297,2.7348,2.7347,2.7403,2.7445,2.7509,2.7557,2.7611,2.7688,2.7751,2.7793,2.7856,2.7892,2.7895,2.7908,2.7905,2.7912,2.783,2.7812,2.7905,2.7905,2.7905,2.7905,2.7904,2.7904,2.719,2.727,2.7291,2.7391,2.7427,2.7498,2.753,2.7573,2.7612,2.7699,2.7751,2.7779,2.7824,2.7891,2.7948,2.7959,2.7981,2.7995,2.8004,2.7927,2.7918,2.7909,2.7892,2.7999,2.8,2.8082,2.8082,2.8083]}]]